Main page
METAR-TAF:

METAR-TAF

Airports :

S.t James Municipal Airport

St. James, Minnesota, United States

latitude: 43-59-11N, longitude: 094-33-29W, elevation: 1066 ft

Current weather observation

The report was made 14 minutes ago, at 04:35 UTC
Wind 8 mph from the North/Northwest
Temperature 64°F
Humidity 94%
Pressure 29.86 in. Hg

METAR: KJYG 260435Z 34007KT 18/17 A2986 RMK AO2 PWINO

Time: 23:49 (04:49 UTC)


TAF: missing

Weather observations and forecasts of more than 4000 airports (METAR and TAF reports).

The available stations are represented by yellow and red dots on the map.

Hover mouse over dot to see the name of the station.

Then click to see weather observations and forecasts.

To change the map : click on the green buttons with a black cross to zoom in, on the green button with a dash to zoom out, or on the green arrows for adjacent maps.


METAR-TAF: